Vorticity
3 10 11 5 10 13 6 38 34 22 17 17 11 10 9 8 9 10 9 6 17 15 14 13 14 14 17 21 22 23 24 19 10 3 1 -0 -1 5 15 25 29 29 23 18
0 11 6 -16 12 5 12 6 2 8 5 16 17 17 10 8 8 8 12 18 16 17 17 18 19 19 17 15 12 8 3 1 -1 0 18 30 31 24 18 15 11 8 6 7
6 16 13 -23 10 4 3 28 6 -8 8 17 14 16 14 11 8 5 6 5 5 8 11 8 4 1 2 2 4 6 9 20 29 26 21 12 8 6 6 7 9 10 10 8
7 31 11 2 13 4 -5 14 15 22 6 18 12 13 14 14 15 14 13 12 11 10 10 11 13 16 18 21 20 20 19 15 12 7 4 4 7 9 9 9 7 5 4 5
11 19 9 -14 3 6 3 -9 29 13 8 9 10 13 10 11 13 14 13 14 15 15 16 17 15 13 12 13 13 12 10 4 4 6 7 7 7 6 6 5 5 5 5 6
24 17 18 5 23 23 2 -10 11 23 11 11 13 17 14 12 15 15 13 13 12 11 10 11 11 8 8 6 5 4 3 4 5 6 6 6 6 6 6 6 6 7 9 10
7 15 -14 28 27 7 13 1 8 16 22 12 9 18 6 6 6 9 9 9 10 10 7 5 5 4 5 5 6 6 7 7 7 7 7 8 8 9 10 9 9 9 10 9
11 20 1 30 38 18 19 15 12 11 10 10 36 14 2 7 5 5 6 8 8 6 5 7 7 8 10 10 11 11 11 11 11 11 11 11 10 9 8 9 8 7 7 6
10 3 3 4 3 3 10 8 13 14 12 14 10 3 6 3 4 6 6 7 10 11 13 13 13 11 8 8 7 6 6 6 6 6 6 5 5 5 5 5 5 5 6 7
12 -2 4 3 2 3 4 4 6 12 15 9 11 11 10 9 9 10 9 13 12 11 8 7 8 6 5 4 5 4 5 5 5 5 6 6 7 9 9 10 10 11 11 11
7 14 15 10 6 5 4 4 4 4 6 10 12 11 9 10 11 12 13 10 8 7 8 6 4 3 4 4 4 6 9 12 12 11 14 15 15 13 14 15 15 15 14 13
15 13 7 11 12 10 7 5 3 5 5 4 4 6 7 7 7 7 8 7 7 6 3 2 2 3 3 4 5 9 12 10 13 17 16 14 14 13 13 13 13 14 14 15
18 19 23 23 20 18 17 15 12 10 7 6 4 5 5 5 6 7 8 7 6 6 4 4 4 3 3 5 8 12 10 14 19 15 15 14 13 13 12 11 11 10 10 8
11 11 11 12 14 16 19 24 27 23 15 13 12 6 3 3 4 4 4 4 4 3 3 3 4 4 8 11 14 11 14 18 14 12 11 10 9 8 7 7 7 7 7 7
7 8 8 9 9 9 9 10 13 15 20 26 26 20 14 10 9 8 5 4 5 6 7 10 11 12 13 15 10 10 17 12 10 8 8 7 6 6 7 8 8 8 8 8
10 9 9 8 5 5 6 8 8 7 8 10 15 20 26 28 23 14 8 7 11 13 6 5 11 13 13 9 8 14 14 9 9 8 7 7 7 8 8 8 8 8 8 8
12 15 18 17 15 13 12 10 8 6 5 7 7 8 11 18 26 30 26 18 11 9 13 16 15 12 8 7 14 13 12 9 7 7 7 8 7 7 7 7 7 8 8 7
11 12 11 7 7 7 7 8 9 9 10 10 8 5 6 7 9 14 17 17 17 17 15 11 8 8 7 12 10 11 10 8 7 7 7 7 7 6 7 7 7 8 9 9
10 12 12 14 15 14 12 11 9 10 12 13 12 10 10 5 6 6 7 10 13 15 15 14 13 11 10 9 8 8 8 8 7 7 7 7 8 8 9 9 10 10 11 11
10 5 3 4 6 11 19 17 13 11 12 14 16 16 15 12 10 6 5 6 6 8 8 8 7 8 8 8 8 8 8 8 8 8 9 9 9 9 10 9 10 11 11 12
12 11 8 5 5 5 6 16 18 14 13 14 16 17 18 18 16 13 11 11 6 8 8 7 6 7 8 8 8 9 9 8 8 9 8 8 8 7 8 10 11 11 12 12
7 9 9 11 12 8 9 8 16 15 15 14 14 15 18 20 18 20 19 15 13 11 7 7 8 9 10 9 8 7 6 7 8 9 10 11 13 13 12 11 12 12 12 13
10 7 11 9 16 13 10 9 14 16 14 15 15 14 14 16 20 19 21 20 19 14 12 13 12 10 10 9 11 11 12 14 14 12 11 9 10 13 14 14 13 12 12 12
10 14 15 15 14 13 10 10 11 17 15 15 14 16 15 15 16 19 22 21 20 19 16 14 14 14 13 13 14 14 13 13 12 9 10 13 14 14 13 12 12 12 13 11
14 17 15 11 12 13 12 14 16 18 15 14 14 15 16 15 15 16 17 20 22 21 20 17 15 14 13 14 13 11 10 9 12 14 14 13 12 13 12 11 11 9 10 11
19 8 4 7 17 20 20 21 20 17 15 13 12 12 13 14 13 13 14 16 18 20 19 17 15 14 13 12 12 12 14 17 13 12 12 12 12 11 11 10 9 10 9 8
7 2 3 8 13 19 19 21 18 15 14 13 12 12 11 12 12 11 10 10 11 12 13 15 15 15 15 15 14 14 14 14 12 11 9 9 10 10 8 8 8 9 10 11
Height
2953 2951 2950 2947 2945 2942 2939 2939 2940 2946 2945 2948 2949 2952 2956 2960 2964 2967 2970 2974 2977 2981 2986 2990 2994 2999 3004 3009 3014 3020 3025 3030 3035 3040 3044 3048 3052 3055 3058 3062 3066 3069 3072 3076
2955 2953 2952 2950 2950 2948 2946 2945 2946 2949 2950 2952 2953 2956 2960 2964 2966 2969 2972 2975 2978 2982 2986 2990 2995 3000 3005 3010 3015 3020 3025 3029 3033 3037 3041 3044 3048 3052 3055 3059 3062 3066 3069 3072
2956 2956 2956 2957 2957 2957 2957 2953 2952 2952 2955 2956 2957 2959 2963 2966 2968 2971 2975 2978 2982 2985 2990 2994 2997 3002 3006 3010 3015 3019 3023 3026 3030 3034 3038 3042 3046 3050 3054 3058 3061 3064 3066 3069
2958 2956 2963 2967 2965 2963 2961 2960 2957 2957 2958 2960 2961 2963 2966 2968 2971 2973 2977 2980 2984 2988 2992 2995 2999 3003 3007 3010 3014 3017 3021 3025 3029 3033 3037 3041 3045 3049 3052 3055 3058 3061 3063 3065
2963 2960 2967 2966 2965 2965 2965 2965 2962 2960 2962 2964 2966 2967 2969 2971 2973 2976 2978 2982 2985 2989 2993 2996 3000 3004 3008 3011 3015 3019 3022 3026 3030 3034 3037 3041 3044 3047 3050 3053 3055 3057 3059 3061
2965 2965 2971 2970 2967 2966 2965 2966 2963 2962 2965 2966 2968 2970 2971 2973 2976 2979 2982 2985 2988 2992 2995 2998 3002 3005 3008 3012 3016 3020 3023 3026 3029 3032 3035 3038 3041 3044 3046 3049 3051 3053 3055 3056
2968 2968 2970 2967 2966 2965 2966 2972 2965 2965 2968 2970 2971 2973 2974 2977 2980 2983 2986 2989 2992 2994 2996 2999 3003 3007 3010 3013 3016 3019 3021 3024 3027 3029 3032 3035 3037 3040 3042 3044 3046 3048 3049 3051
2972 2971 2974 2970 2968 2968 2970 2968 2968 2969 2970 2971 2972 2974 2977 2980 2983 2985 2988 2990 2992 2995 2998 3001 3004 3007 3010 3012 3014 3017 3019 3022 3024 3026 3029 3031 3033 3035 3037 3039 3041 3042 3044 3046
2978 2977 2975 2974 2973 2972 2972 2972 2971 2971 2971 2972 2974 2977 2979 2982 2984 2986 2988 2991 2993 2995 2998 3000 3003 3005 3008 3011 3013 3015 3017 3019 3021 3024 3025 3027 3028 3030 3032 3034 3035 3037 3039 3040
2977 2975 2974 2974 2975 2974 2974 2974 2974 2973 2973 2974 2975 2977 2979 2981 2983 2985 2987 2989 2992 2995 2997 3000 3002 3004 3007 3009 3011 3013 3014 3016 3017 3018 3019 3020 3022 3024 3025 3027 3029 3031 3033 3034
2974 2973 2972 2972 2973 2973 2974 2974 2974 2975 2976 2976 2977 2978 2979 2981 2983 2984 2986 2988 2991 2993 2995 2998 3000 3002 3004 3006 3007 3008 3009 3010 3011 3012 3014 3015 3016 3017 3019 3021 3022 3024 3025 3027
2971 2970 2970 2969 2969 2969 2970 2971 2972 2973 2975 2976 2978 2979 2980 2982 2983 2984 2986 2988 2990 2992 2994 2996 2998 2999 3000 3002 3002 3003 3003 3004 3005 3006 3007 3008 3010 3012 3013 3015 3016 3018 3019 3021
2970 2968 2967 2966 2966 2966 2966 2967 2968 2969 2970 2972 2974 2976 2978 2979 2981 2983 2984 2986 2988 2990 2991 2993 2995 2996 2997 2997 2998 2998 2998 2999 2999 3000 3002 3003 3005 3007 3008 3010 3011 3013 3014 3015
2970 2968 2967 2966 2965 2964 2963 2963 2963 2964 2965 2966 2967 2969 2971 2973 2975 2978 2980 2982 2983 2985 2987 2988 2990 2990 2991 2991 2991 2992 2992 2993 2994 2996 2997 2999 3001 3003 3004 3005 3007 3008 3009 3010
2970 2968 2967 2966 2964 2963 2962 2962 2961 2961 2961 2961 2962 2963 2964 2965 2967 2970 2972 2974 2976 2978 2980 2982 2983 2983 2984 2984 2985 2986 2987 2988 2990 2991 2993 2995 2996 2998 2999 3001 3002 3002 3003 3003
2968 2966 2965 2964 2963 2962 2961 2960 2960 2959 2958 2958 2957 2957 2957 2957 2958 2960 2963 2965 2968 2971 2972 2973 2974 2975 2976 2978 2979 2980 2981 2983 2984 2987 2988 2990 2991 2992 2993 2994 2994 2995 2996 2997
2965 2964 2962 2961 2960 2959 2958 2957 2956 2955 2954 2954 2953 2953 2952 2952 2951 2952 2954 2956 2959 2961 2963 2965 2967 2968 2970 2971 2973 2974 2975 2977 2979 2981 2982 2983 2984 2985 2986 2986 2987 2987 2988 2988
2963 2961 2960 2958 2957 2956 2954 2953 2952 2951 2950 2949 2948 2948 2948 2948 2948 2948 2948 2949 2951 2953 2955 2957 2959 2961 2963 2965 2966 2968 2969 2970 2972 2974 2975 2976 2976 2977 2977 2978 2978 2979 2979 2978
2961 2958 2956 2954 2953 2951 2950 2948 2946 2945 2943 2942 2942 2942 2942 2942 2942 2942 2943 2944 2946 2947 2951 2951 2952 2953 2955 2957 2958 2960 2962 2963 2964 2966 2967 2967 2967 2968 2968 2968 2968 2968 2968 2968
2957 2955 2953 2951 2949 2946 2944 2941 2940 2938 2936 2935 2934 2934 2933 2934 2934 2935 2936 2939 2940 2942 2942 2943 2944 2946 2949 2950 2951 2952 2954 2955 2956 2957 2958 2958 2959 2958 2958 2958 2958 2958 2957 2957
2954 2951 2949 2946 2944 2941 2938 2936 2933 2931 2929 2927 2926 2925 2924 2924 2924 2925 2927 2930 2934 2933 2934 2935 2937 2939 2941 2942 2942 2945 2946 2947 2947 2948 2948 2948 2948 2948 2948 2948 2947 2947 2947 2946
2947 2945 2942 2939 2937 2934 2932 2929 2926 2923 2921 2920 2918 2917 2916 2915 2915 2915 2917 2920 2922 2922 2924 2927 2929 2930 2932 2931 2932 2935 2937 2937 2938 2938 2938 2938 2937 2937 2937 2937 2937 2936 2936 2935
2940 2937 2934 2932 2929 2927 2924 2922 2919 2916 2914 2912 2911 2910 2909 2908 2907 2907 2908 2909 2911 2912 2914 2917 2919 2920 2921 2921 2924 2925 2926 2928 2927 2927 2927 2927 2927 2926 2926 2926 2926 2925 2925 2924
2932 2929 2926 2924 2921 2919 2917 2914 2912 2909 2907 2906 2905 2903 2902 2901 2900 2900 2900 2900 2901 2903 2905 2908 2909 2910 2911 2912 2915 2916 2916 2917 2918 2918 2917 2916 2916 2916 2916 2915 2915 2914 2914 2913
2924 2921 2919 2917 2914 2911 2908 2906 2904 2902 2901 2900 2899 2898 2897 2896 2895 2894 2893 2894 2894 2896 2898 2899 2901 2902 2903 2904 2906 2907 2907 2907 2907 2906 2906 2906 2905 2906 2906 2905 2904 2903 2902 2902
2917 2915 2913 2910 2907 2903 2900 2898 2896 2895 2895 2894 2894 2893 2892 2891 2890 2890 2889 2889 2889 2890 2891 2892 2893 2894 2895 2896 2896 2897 2898 2898 2897 2896 2896 2896 2896 2895 2895 2894 2893 2892 2890 2889
2912 2909 2907 2903 2900 2897 2894 2892 2891 2890 2890 2890 2889 2888 2888 2887 2887 2886 2885 2885 2885 2886 2886 2887 2887 2887 2888 2888 2888 2889 2889 2889 2888 2887 2886 2885 2885 2885 2884 2882 2881 2879 2878 2876